Change the Weather History Date:

Wednesday, May 7, 2014

  Actual Average Record
Temperature  
Mean Temperature 43 °F 45 °F  
Max Temperature 57 °F 59 °F 75 °F (1963)
Min Temperature 28 °F 31 °F 19 °F (2010)
Degree Days  
Heating Degree Days 22 20  
Month to date heating degree days 122 149  
Since 1 July heating degree days 7957 8198  
Cooling Degree Days 0 0  
Month to date cooling degree days 0 0  
Year to date cooling degree days 0 0  
Moisture  
Dew Point 33 °F    
Average Humidity 73    
Maximum Humidity 100    
Minimum Humidity 46    
Precipitation  
Precipitation 0.05 in 0.05 in 0.41 in (1961)
Month to date precipitation 0.05 0.32  
Year to date precipitation 2.58 2.58  
Sea Level Pressure  
Sea Level Pressure 29.66 in    
Wind  
Wind Speed 13 mph (NNW)    
Max Wind Speed 33 mph    
Max Gust Speed 39 mph    
Visibility 7 miles    
Events Fog , Rain , Snow , Thunderstorm    
T = Trace of Precipitation, MM = Missing Value Source: NWS Daily Summary

Daily Weather History Graph

Daily Weather History Graph

Search for Another Location

Airport or City:

Trip Planner

Search our weather history database for the weather conditions in past years. The results will help you decide how hot, cold, wet, or windy it might be!

Date:

Astronomy

May. 07, 2014 Rise Set
Actual Time 5:52 AM MDT 8:06 PM MDT
Civil Twilight 5:21 AM MDT 8:37 PM MDT
Nautical Twilight 4:44 AM MDT 9:15 PM MDT
Astronomical Twilight 4:02 AM MDT 9:56 PM MDT
Moon 1:09 PM MDT (5/7) 1:57 AM MDT (5/7)
Length of Visible Light 15h 15m
Length of Day
14h 13m
First Quarter, 56% of the Moon is Illuminated
May 7
First Quarter
May 14
Full
May 21
Last Quarter
May 28
New
Jun 5
First Quarter

Hourly Weather History & Observations

Time (MDT) Temp. Windchill Dew Point Humidity Pressure Visibility Wind Dir Wind Speed Gust Speed Precip Events Conditions
12:53 AM 37.9 °F 34.4 °F 23.0 °F 55% 29.46 in 10.0 mi NE 4.6 mph - N/A   Clear
1:53 AM 37.0 °F 31.6 °F 21.0 °F 52% 29.46 in 10.0 mi South 6.9 mph - N/A   Clear
2:53 AM 33.1 °F 25.5 °F 19.9 °F 59% 29.48 in 10.0 mi South 9.2 mph - N/A   Clear
3:53 AM 33.1 °F 24.9 °F 19.9 °F 59% 29.52 in 10.0 mi West 10.4 mph - N/A   Partly Cloudy
4:08 AM 33.1 °F 24.4 °F 28.9 °F 85% 29.72 in 2.0 mi NW 11.5 mph - N/A   Scattered Clouds
4:10 AM 34.0 °F 25.0 °F 30.9 °F 89% 29.72 in 0.8 mi NW 12.7 mph - N/A   Scattered Clouds
4:15 AM 35.1 °F 26.4 °F 33.1 °F 92% 29.72 in 0.2 mi NW 12.7 mph - N/A Fog Fog
4:53 AM 37.0 °F 32.4 °F 37.0 °F 100% 29.52 in 0.2 mi NNE 5.8 mph - N/A Fog Fog
5:53 AM 36.0 °F 32.1 °F 36.0 °F 100% 29.55 in 0.2 mi NNW 4.6 mph - N/A Fog Fog
6:53 AM 36.0 °F 33.3 °F 36.0 °F 100% 29.57 in 0.2 mi NNW 3.5 mph - N/A Fog Fog
7:39 AM 37.9 °F - 37.0 °F 97% 29.77 in 1.2 mi Calm Calm - N/A   Mostly Cloudy
7:53 AM 39.0 °F - 37.0 °F 93% 29.58 in 8.0 mi Calm Calm - N/A   Partly Cloudy
8:12 AM 39.0 °F 34.0 °F 37.9 °F 96% 29.77 in 1.5 mi South 6.9 mph - N/A   Scattered Clouds
8:21 AM 37.9 °F 32.7 °F 37.0 °F 97% 29.76 in 1.2 mi South 6.9 mph - N/A   Mostly Cloudy
8:29 AM 39.0 °F 34.0 °F 36.0 °F 89% 29.76 in 3.0 mi South 6.9 mph - N/A   Mostly Cloudy
8:53 AM 43.0 °F 39.5 °F 37.0 °F 80% 29.57 in 10.0 mi South 5.8 mph - N/A   Partly Cloudy
9:53 AM 55.0 °F - 37.0 °F 51% 29.50 in 10.0 mi SE 17.3 mph 21.9 mph N/A   Partly Cloudy
12:53 PM 55.0 °F - 37.9 °F 53% 29.51 in 10.0 mi ESE 26.5 mph 35.7 mph N/A   Clear
1:53 PM 57.0 °F - 37.0 °F 47% 29.50 in 10.0 mi SE 25.3 mph 33.4 mph N/A   Scattered Clouds
2:53 PM 55.0 °F - 35.1 °F 47% 29.51 in 10.0 mi SE 25.3 mph 38.0 mph N/A   Clear
3:53 PM 53.1 °F - 34.0 °F 48% 29.51 in 10.0 mi ESE 26.5 mph 38.0 mph N/A   Partly Cloudy
4:53 PM 48.9 °F - 30.9 °F 50% 29.53 in 10.0 mi SE 23.0 mph 34.5 mph N/A   Overcast
5:53 PM 46.0 °F 40.6 °F 34.0 °F 63% 29.59 in 10.0 mi North 11.5 mph - N/A   Overcast
6:13 PM 41.0 °F 33.5 °F 35.1 °F 79% 29.72 in 10.0 mi NNE 13.8 mph 25.3 mph 0.00 in Thunderstorm Overcast
6:28 PM 39.0 °F 30.6 °F 35.1 °F 86% 29.74 in 5.0 mi NNW 15.0 mph - 0.00 in Rain Light Rain
6:47 PM 37.4 °F 26.4 °F 35.6 °F 93% 29.77 in 10.0 mi NW 23.0 mph 27.6 mph 0.01 in Rain Light Rain
6:53 PM 36.0 °F 25.6 °F 35.1 °F 97% 29.70 in 8.0 mi NNW 18.4 mph 27.6 mph 0.01 in Rain , Thunderstorm Light Rain
7:01 PM 36.0 °F 26.7 °F 35.1 °F 97% 29.76 in 6.0 mi North 15.0 mph - 0.00 in Rain , Thunderstorm Light Rain
7:10 PM 37.0 °F 28.9 °F 35.1 °F 93% 29.76 in 8.0 mi North 12.7 mph - 0.00 in Rain Light Rain
7:53 PM 37.0 °F 28.5 °F 34.0 °F 89% 29.67 in 10.0 mi NE 13.8 mph - 0.00 in   Overcast
8:53 PM 36.0 °F 28.5 °F 32.0 °F 86% 29.65 in 10.0 mi NNE 10.4 mph - N/A   Overcast
9:37 PM 36.0 °F 29.6 °F 32.0 °F 86% 29.82 in 8.0 mi NW 8.1 mph - 0.00 in Snow Light Snow
9:53 PM 35.1 °F 30.1 °F 33.1 °F 92% 29.66 in 4.0 mi West 5.8 mph - 0.01 in Snow Light Snow
10:06 PM 35.1 °F 30.1 °F 33.1 °F 92% 29.82 in 9.0 mi SSE 5.8 mph - 0.00 in Rain Light Rain
10:40 PM 35.1 °F 32.2 °F 33.1 °F 92% 29.85 in 9.0 mi West 3.5 mph - 0.00 in   Overcast
10:53 PM 35.1 °F - 33.1 °F 92% 29.70 in 5.0 mi Calm Calm - 0.01 in Snow Light Snow
11:00 PM 35.1 °F 32.2 °F 32.0 °F 89% 29.83 in 5.0 mi NNW 3.5 mph - 0.00 in Snow Light Snow
11:29 PM 34.0 °F 26.0 °F 33.1 °F 96% 29.81 in 5.0 mi NW 10.4 mph - 0.01 in Snow Light Snow
11:43 PM 33.1 °F 26.1 °F 32.0 °F 96% 29.81 in 4.0 mi NW 8.1 mph - 0.01 in Snow Light Snow
11:51 PM 33.8 °F 27.7 °F 32.0 °F 93% 29.81 in 7.0 mi NNW 6.9 mph - 0.02 in Snow Light Snow
11:53 PM 34.0 °F 28.0 °F 32.0 °F 92% 29.64 in 8.0 mi NNW 6.9 mph - 0.02 in Snow Light Snow